Time,TemperatureF,DewpointF,PressureIn,WindDirection,WindDirectionDegrees,WindSpeedMPH,WindSpeedGustMPH,Humidity,HourlyPrecipIn,Conditions,Clouds,dailyrainin,SoftwareType,DateUTC
2013-08-04 00:02:00,68.0,38.0,-100.00,West,281,8.0,17.0,33,-99.99,,,-99.99,,2013-08-04 07:02:00,
2013-08-04 01:02:00,67.0,36.0,-100.00,NW,311,5.0,11.0,32,-99.99,,,-99.99,,2013-08-04 08:02:00,
2013-08-04 02:52:00,65.0,34.0,-100.00,NW,313,3.0,7.0,32,-99.99,,,-99.99,,2013-08-04 09:52:00,
2013-08-04 06:12:00,60.0,35.0,-100.00,West,281,0.0,5.0,39,-99.99,,,-99.99,,2013-08-04 13:12:00,
2013-08-04 06:22:00,60.0,35.0,-100.00,West,281,0.0,5.0,39,-99.99,,,-99.99,,2013-08-04 13:22:00,
2013-08-04 07:02:00,59.0,33.0,-100.00,NNW,333,0.0,5.0,38,-99.99,,,-99.99,,2013-08-04 14:02:00,
2013-08-04 07:32:00,61.0,34.0,-100.00,East,89,0.0,4.0,36,-99.99,,,-99.99,,2013-08-04 14:32:00,
2013-08-04 08:22:00,63.0,35.0,-100.00,ESE,116,1.0,5.0,35,-99.99,,,-99.99,,2013-08-04 15:22:00,
2013-08-04 08:32:00,63.0,35.0,-100.00,ESE,116,1.0,5.0,35,-99.99,,,-99.99,,2013-08-04 15:32:00,
2013-08-04 08:42:00,65.0,37.0,-100.00,East,86,1.0,7.0,36,-99.99,,,-99.99,,2013-08-04 15:42:00,
2013-08-04 08:52:00,65.0,37.0,-100.00,East,86,1.0,7.0,36,-99.99,,,-99.99,,2013-08-04 15:52:00,
2013-08-04 09:11:00,66.0,37.0,-100.00,East,88,1.0,7.0,34,-99.99,,,-99.99,,2013-08-04 16:11:00,
2013-08-04 09:22:00,66.0,37.0,-100.00,East,88,1.0,7.0,34,-99.99,,,-99.99,,2013-08-04 16:22:00,
2013-08-04 09:32:00,68.0,38.0,-100.00,East,100,2.0,6.0,33,-99.99,,,-99.99,,2013-08-04 16:32:00,
2013-08-04 09:42:00,68.0,38.0,-100.00,East,100,2.0,6.0,33,-99.99,,,-99.99,,2013-08-04 16:42:00,
2013-08-04 09:52:00,71.0,37.0,-100.00,East,96,3.0,6.0,29,-99.99,,,-99.99,,2013-08-04 16:52:00,
2013-08-04 10:02:00,71.0,37.0,-100.00,East,96,3.0,6.0,29,-99.99,,,-99.99,,2013-08-04 17:02:00,
2013-08-04 10:12:00,71.0,35.0,-100.00,East,95,3.0,9.0,27,-99.99,,,-99.99,,2013-08-04 17:12:00,
2013-08-04 10:22:00,71.0,35.0,-100.00,East,95,3.0,9.0,27,-99.99,,,-99.99,,2013-08-04 17:22:00,
2013-08-04 10:32:00,71.0,35.0,-100.00,East,95,3.0,9.0,27,-99.99,,,-99.99,,2013-08-04 17:32:00,
2013-08-04 10:43:00,75.0,37.0,-100.00,North,-999,-999.0,-999.0,25,-99.99,,,-99.99,,2013-08-04 17:43:00,
2013-08-04 10:53:00,75.0,37.0,-100.00,East,99,4.0,8.0,25,-99.99,,,-99.99,,2013-08-04 17:53:00,
2013-08-04 11:02:00,75.0,37.0,-100.00,East,99,4.0,8.0,25,-99.99,,,-99.99,,2013-08-04 18:02:00,
2013-08-04 11:12:00,77.0,36.0,-100.00,ESE,103,4.0,10.0,23,-99.99,,,-99.99,,2013-08-04 18:12:00,
2013-08-04 11:22:00,77.0,36.0,-100.00,ESE,103,4.0,10.0,23,-99.99,,,-99.99,,2013-08-04 18:22:00,
2013-08-04 11:33:00,79.0,34.0,-100.00,East,92,4.0,11.0,20,-99.99,,,-99.99,,2013-08-04 18:33:00,
2013-08-04 11:43:00,79.0,34.0,-100.00,East,92,4.0,11.0,20,-99.99,,,-99.99,,2013-08-04 18:43:00,
2013-08-04 11:52:00,80.0,33.0,-100.00,ESE,109,4.0,9.0,18,-99.99,,,-99.99,,2013-08-04 18:52:00,
2013-08-04 12:02:00,80.0,33.0,-100.00,ESE,109,4.0,9.0,18,-99.99,,,-99.99,,2013-08-04 19:02:00,
2013-08-04 12:12:00,80.0,33.0,-100.00,ESE,109,4.0,9.0,18,-99.99,,,-99.99,,2013-08-04 19:12:00,
2013-08-04 12:22:00,82.0,33.0,-100.00,East,99,4.0,10.0,17,-99.99,,,-99.99,,2013-08-04 19:22:00,
2013-08-04 12:33:00,82.0,33.0,-100.00,East,99,4.0,10.0,17,-99.99,,,-99.99,,2013-08-04 19:33:00,
2013-08-04 12:43:00,82.0,26.0,-100.00,East,100,5.0,11.0,13,-99.99,,,-99.99,,2013-08-04 19:43:00,
2013-08-04 12:52:00,82.0,26.0,-100.00,East,100,5.0,11.0,13,-99.99,,,-99.99,,2013-08-04 19:52:00,
2013-08-04 13:12:00,83.0,25.0,-100.00,ESE,106,6.0,13.0,12,-99.99,,,-99.99,,2013-08-04 20:12:00,
2013-08-04 13:22:00,85.0,27.0,-100.00,ESE,104,6.0,12.0,12,-99.99,,,-99.99,,2013-08-04 20:22:00,
2013-08-04 13:32:00,85.0,27.0,-100.00,ESE,104,6.0,12.0,12,-99.99,,,-99.99,,2013-08-04 20:32:00,
2013-08-04 13:42:00,85.0,27.0,-100.00,ESE,104,6.0,12.0,12,-99.99,,,-99.99,,2013-08-04 20:42:00,
2013-08-04 13:53:00,86.0,28.0,-100.00,North,-999,-999.0,-999.0,12,-99.99,,,-99.99,,2013-08-04 20:53:00,
2013-08-04 14:02:00,86.0,27.0,-100.00,East,95,4.0,10.0,12,-99.99,,,-99.99,,2013-08-04 21:02:00,
2013-08-04 14:12:00,86.0,27.0,-100.00,East,95,4.0,10.0,12,-99.99,,,-99.99,,2013-08-04 21:12:00,
2013-08-04 14:22:00,86.0,27.0,-100.00,East,95,4.0,10.0,12,-99.99,,,-99.99,,2013-08-04 21:22:00,
2013-08-04 14:32:00,86.0,27.0,-100.00,East,95,4.0,10.0,12,-99.99,,,-99.99,,2013-08-04 21:32:00,
2013-08-04 14:43:00,85.0,29.0,-100.00,North,-999,-999.0,-999.0,13,-99.99,,,-99.99,,2013-08-04 21:43:00,
2013-08-04 14:53:00,85.0,29.0,-100.00,NW,309,7.0,19.0,13,-99.99,,,-99.99,,2013-08-04 21:53:00,
2013-08-04 15:01:00,85.0,29.0,-100.00,NW,309,7.0,19.0,13,-99.99,,,-99.99,,2013-08-04 22:01:00,
2013-08-04 15:11:00,85.0,29.0,-100.00,WNW,284,7.0,17.0,13,-99.99,,,-99.99,,2013-08-04 22:11:00,
2013-08-04 15:22:00,85.0,29.0,-100.00,WNW,284,7.0,17.0,13,-99.99,,,-99.99,,2013-08-04 22:22:00,
2013-08-04 15:32:00,85.0,29.0,-100.00,WNW,284,7.0,17.0,13,-99.99,,,-99.99,,2013-08-04 22:32:00,
2013-08-04 17:12:00,82.0,34.0,-100.00,North,-999,-999.0,-999.0,17,-99.99,,,-99.99,,2013-08-05 00:12:00,
2013-08-04 17:22:00,82.0,33.0,-100.00,NW,316,12.0,24.0,17,-99.99,,,-99.99,,2013-08-05 00:22:00,
2013-08-04 17:32:00,82.0,33.0,-100.00,NW,316,12.0,24.0,17,-99.99,,,-99.99,,2013-08-05 00:32:00,
2013-08-04 17:42:00,82.0,33.0,-100.00,WNW,292,9.0,23.0,17,-99.99,,,-99.99,,2013-08-05 00:42:00,
2013-08-04 17:52:00,82.0,33.0,-100.00,WNW,292,9.0,23.0,17,-99.99,,,-99.99,,2013-08-05 00:52:00,
2013-08-04 18:02:00,81.0,36.0,-100.00,WNW,287,9.0,22.0,20,-99.99,,,-99.99,,2013-08-05 01:02:00,
2013-08-04 18:11:00,79.0,37.0,-100.00,West,274,8.0,17.0,22,-99.99,,,-99.99,,2013-08-05 01:11:00,
2013-08-04 18:12:00,81.0,36.0,-100.00,WNW,287,9.0,22.0,20,-99.99,,,-99.99,,2013-08-05 01:12:00,
2013-08-04 18:22:00,80.0,37.0,-100.00,West,275,11.0,23.0,21,-99.99,,,-99.99,,2013-08-05 01:22:00,
2013-08-04 18:33:00,80.0,37.0,-100.00,West,275,11.0,23.0,21,-99.99,,,-99.99,,2013-08-05 01:33:00,
2013-08-04 18:42:00,79.0,37.0,-100.00,West,274,8.0,17.0,22,-99.99,,,-99.99,,2013-08-05 01:42:00,
2013-08-04 18:52:00,79.0,37.0,-100.00,West,274,8.0,17.0,22,-99.99,,,-99.99,,2013-08-05 01:52:00,
2013-08-04 19:02:00,79.0,37.0,-100.00,West,274,8.0,17.0,22,-99.99,,,-99.99,,2013-08-05 02:02:00,
2013-08-04 19:22:00,78.0,35.0,-100.00,WNW,288,7.0,19.0,21,-99.99,,,-99.99,,2013-08-05 02:22:00,
2013-08-04 19:33:00,78.0,35.0,-100.00,WNW,288,7.0,19.0,21,-99.99,,,-99.99,,2013-08-05 02:33:00,
2013-08-04 19:42:00,78.0,35.0,-100.00,WNW,288,7.0,19.0,21,-99.99,,,-99.99,,2013-08-05 02:42:00,
2013-08-04 19:53:00,77.0,35.0,-100.00,WNW,289,6.0,17.0,22,-99.99,,,-99.99,,2013-08-05 02:53:00,
2013-08-04 20:02:00,77.0,35.0,-100.00,WNW,289,6.0,17.0,22,-99.99,,,-99.99,,2013-08-05 03:02:00,
2013-08-04 20:12:00,76.0,36.0,-100.00,WNW,282,9.0,21.0,23,-99.99,,,-99.99,,2013-08-05 03:12:00,
2013-08-04 20:20:00,73.0,36.0,-100.00,West,281,11.0,24.0,26,-99.99,,,-99.99,,2013-08-05 03:20:00,
2013-08-04 20:22:00,76.0,36.0,-100.00,WNW,282,9.0,21.0,23,-99.99,,,-99.99,,2013-08-05 03:22:00,
2013-08-04 20:32:00,76.0,36.0,-100.00,WNW,282,9.0,21.0,23,-99.99,,,-99.99,,2013-08-05 03:32:00,
2013-08-04 20:42:00,73.0,37.0,-100.00,North,-999,-999.0,-999.0,26,-99.99,,,-99.99,,2013-08-05 03:42:00,
2013-08-04 20:52:00,73.0,36.0,-100.00,West,281,11.0,24.0,26,-99.99,,,-99.99,,2013-08-05 03:52:00,
2013-08-04 21:02:00,73.0,36.0,-100.00,West,281,11.0,24.0,26,-99.99,,,-99.99,,2013-08-05 04:02:00,
2013-08-04 21:12:00,73.0,36.0,-100.00,West,281,11.0,24.0,26,-99.99,,,-99.99,,2013-08-05 04:12:00,
2013-08-04 21:32:00,71.0,35.0,-100.00,West,278,12.0,26.0,27,-99.99,,,-99.99,,2013-08-05 04:32:00,
2013-08-04 21:43:00,71.0,35.0,-100.00,West,278,12.0,26.0,27,-99.99,,,-99.99,,2013-08-05 04:43:00,
2013-08-04 21:52:00,71.0,35.0,-100.00,WNW,289,12.0,24.0,27,-99.99,,,-99.99,,2013-08-05 04:52:00,
2013-08-04 22:01:00,71.0,35.0,-100.00,WNW,289,12.0,24.0,27,-99.99,,,-99.99,,2013-08-05 05:01:00,
2013-08-04 22:12:00,71.0,35.0,-100.00,WNW,285,12.0,26.0,27,-99.99,,,-99.99,,2013-08-05 05:12:00,
2013-08-04 22:21:00,71.0,35.0,-100.00,WNW,285,12.0,26.0,27,-99.99,,,-99.99,,2013-08-05 05:21:00,
2013-08-04 22:32:00,71.0,35.0,-100.00,WNW,285,12.0,26.0,27,-99.99,,,-99.99,,2013-08-05 05:32:00,
2013-08-04 22:42:00,71.0,36.0,-100.00,West,281,12.0,25.0,28,-99.99,,,-99.99,,2013-08-05 05:42:00,
2013-08-04 22:53:00,71.0,36.0,-100.00,West,281,12.0,25.0,28,-99.99,,,-99.99,,2013-08-05 05:53:00,
2013-08-04 23:02:00,70.0,34.0,-100.00,West,281,11.0,22.0,27,-99.99,,,-99.99,,2013-08-05 06:02:00,
2013-08-04 23:12:00,70.0,34.0,-100.00,West,281,11.0,22.0,27,-99.99,,,-99.99,,2013-08-05 06:12:00,
2013-08-04 23:22:00,70.0,34.0,-100.00,West,271,11.0,20.0,26,-99.99,,,-99.99,,2013-08-05 06:22:00,
2013-08-04 23:32:00,70.0,34.0,-100.00,West,271,11.0,20.0,26,-99.99,,,-99.99,,2013-08-05 06:32:00,
2013-08-04 23:42:00,70.0,34.0,-100.00,West,271,11.0,20.0,26,-99.99,,,-99.99,,2013-08-05 06:42:00,
2013-08-04 23:52:00,69.0,36.0,-100.00,West,271,9.0,21.0,30,-99.99,,,-99.99,,2013-08-05 06:52:00,